This is the latest recevied weather packets stored in our database for station/object W5ITZ. If no packets are shown the sender has not sent any weather packets the latest 10 day(s).
| Time | Temp. | Humidity | Pressure | Rain* | Wind** | Luminosity | Snow |
|---|---|---|---|---|---|---|---|
| 1787617383 | 31.11° C | 63% | 1014.6 hPa | 0 mm | - | 36 W/m² | - |
| 1787617083 | 31.11° C | 64% | 1014.6 hPa | 0 mm | - | 43 W/m² | - |
| 1787616778 | 31.67° C | 62% | 1014.6 hPa | 0 mm | - | 50 W/m² | - |
| 1787616478 | 31.67° C | 62% | 1014.5 hPa | 0 mm | - | 59 W/m² | - |
| 1787616176 | 31.67° C | 61% | 1014.7 hPa | 0 mm | - | 66 W/m² | - |
| 1787615875 | 32.22° C | 59% | 1014.2 hPa | 0 mm | - | 76 W/m² | - |
| 1787615570 | 32.22° C | 58% | 1014.2 hPa | 0 mm | - | 86 W/m² | - |
| 1787615266 | 32.78° C | 56% | 1014.3 hPa | 0 mm | - | 99 W/m² | - |
| 1787614962 | 32.78° C | 56% | 1014 hPa | 0 mm | - | 112 W/m² | - |
| 1787614658 | 32.78° C | 56% | 1014.1 hPa | 0 mm | - | 125 W/m² | - |
| 1787614355 | 33.33° C | 53% | 1014.3 hPa | 0 mm | - | 139 W/m² | - |
| 1787614052 | 33.33° C | 52% | 1014.1 hPa | 0 mm | - | 153 W/m² | - |
| 1787613748 | 33.33° C | 53% | 1014 hPa | 0 mm | - | 169 W/m² | - |
| 1787613447 | 33.89° C | 51% | 1013.9 hPa | 0 mm | - | 185 W/m² | - |
| 1787613143 | 33.89° C | 50% | 1014 hPa | 0 mm | - | 202 W/m² | - |
| 1787612840 | 33.89° C | 49% | 1013.8 hPa | 0 mm | - | 219 W/m² | - |
| 1787612536 | 34.44° C | 48% | 1014 hPa | 0 mm | - | 238 W/m² | - |
| 1787612232 | 34.44° C | 47% | 1013.8 hPa | 0 mm | - | 258 W/m² | - |
| 1787611928 | 34.44° C | 46% | 1013.6 hPa | 0 mm | - | 280 W/m² | - |
| 1787611623 | 34.44° C | 46% | 1013.6 hPa | 0 mm | - | 296 W/m² | - |
| 1787611320 | 35° C | 46% | 1013.5 hPa | 0 mm | - | 317 W/m² | - |
| 1787611014 | 35° C | 46% | 1013.6 hPa | 0 mm | - | 338 W/m² | - |
| 1787610711 | 35° C | 46% | 1013.6 hPa | 0 mm | - | 358 W/m² | - |
| 1787610405 | 35° C | 46% | 1013.6 hPa | 0 mm | - | 380 W/m² | - |
| 1787610104 | 35° C | 47% | 1013.5 hPa | 0 mm | - | 401 W/m² | - |
* Rain latest hour (hover to see other rain measurements)
** Current wind speed in m/s (hover to see current wind gust speed)